Regional Weather Roundup
Issued by NWS

Home | Current Version | Previous Version | Text Only | Print | Product List | Glossary On
Versions: 1 2 3 4 5 6 7 8 9 10 11 12 13 14 15 16 17 18 19 20 21 22 23 24 25 26 27 28 29 30 31 32 33 34 35 36 37 38 39 40 41 42 43 44 45 46 47 48 49 50
000
ASUS44 KMEG 270510
RWRTN
TENNESSEE HOURLY STATE WEATHER ROUNDUP
NATIONAL WEATHER SERVICE MEMPHIS TN
1200 AM CDT MON JUN 27 2016

TNZ002-004-019-021-049-052-054-088>092-270600-
WEST TENNESSEE

CITY           SKY/WX    TMP DP  RH WIND       PRES   REMARKS
MEMPHIS INTL   CLOUDY    86  74  67 CALM      30.07R HX  94
NWS MEMPHIS      N/A     82 N/A N/A MISG        N/A
JACKSON        CLOUDY    78  76  93 CALM      30.07R
DYERSBURG      CLOUDY    77  75  94 CALM      30.06S
UNION CITY     CLEAR     77  75  94 CALM      30.05S
PARIS          CLEAR     75  72  88 CALM      30.08R
LEXINGTON      PTCLDY    79  75  89 CALM      30.07R
$$

TNZ008-025-027-028-033-062-065-066-270600-
NORTH MIDDLE TENNESSEE

CITY           SKY/WX    TMP DP  RH WIND       PRES   REMARKS
NASHVILLE      MOCLDY    79  72  79 CALM      30.09R
CLARKSVILLE    CLOUDY    79  74  84 CALM      30.06R
SMYRNA         CLOUDY    78  74  87 SE3       30.09R
COOKEVILLE     MOCLDY    73  72  94 NW9       30.16R
CROSSVILLE     CLOUDY    71  68  90 SW3       30.18R
$$

TNZ061-075-076-078-094-096-097-270600-
SOUTH MIDDLE TENNESSEE

CITY           SKY/WX    TMP DP  RH WIND       PRES   REMARKS
FAYETTEVILLE   CLEAR     77  70  78 CALM      30.11S
TULLAHOMA      CLEAR     75  72  88 SW5       30.13R
WINCHESTER     CLEAR     75  72  88 CALM      30.13R
MCMINNVILLE      N/A     75  75 100 NE10      30.14R
COLUMBIA       CLEAR     81  81 100 S3        30.08S HX  91
SHELBYVILLE    CLEAR     81  75  83 CALM      30.12R
$$

TNZ017-018-042-046-047-270600-
NORTHEAST TENNESSEE

CITY           SKY/WX    TMP DP  RH WIND       PRES   REMARKS
TRI CITIES     PTCLDY    73  66  78 CALM      30.16R
ELIZABETHTON   CLOUDY    73  66  78 VRB3      30.17R
$$

TNZ012-013-036-069-073-074-270600-
CENTRAL EAST TENNESSEE

CITY           SKY/WX    TMP DP  RH WIND       PRES   REMARKS
KNOXVILLE      PTCLDY    79  70  74 CALM      30.12R
OAK RIDGE      CLEAR     77  69  76 CALM      30.13S
GATLINBURG     PTCLDY    73  70  88 CALM      30.12S
MORRISTOWN     CLOUDY    73  68  83 CALM      30.13S
$$

TNZ083-085-099-270600-
SOUTHEAST TENNESSEE

CITY           SKY/WX    TMP DP  RH WIND       PRES   REMARKS
CHATTANOOGA    CLEAR     76  70  82 N3        30.11S
$$

SKY/WX REPORTED AS FAIR MEANS FEW OR NO CLOUDS BELOW
12 THOUSAND FEET.





USA.gov is the U.S. government's official web portal to all federal, state and local government web resources and services.